Simultaneous Nadir Overpasses (SNOs) Predictions

Prediction of SNOs between GOES-17 and AQUA Satellite Orbit:

Table of predicted SNOs for the next 14.0 days since TLE Epoch: 5/15/2021
Index Date Time (GOES-17) GOES-17 Lat,Lon AQUA Lat,Lon Distance(km) Time Diff (sec)
1 05/15/2021 10:45:22 -0.01,-137.20 0.00,-137.15 5.54 80
2 05/17/2021 10:30:31 -0.01,-137.19 -0.65,-134.20 340.44 80
3 05/17/2021 22:54:35 0.01,-137.19 -0.48,-139.39 250.54 80
4 05/19/2021 22:39:44 0.01,-137.18 0.18,-136.44 84.54 80
5 05/21/2021 22:27:32 0.01,-137.16 0.79,-133.47 419.12 80
6 05/22/2021 10:51:27 -0.00,-137.16 0.33,-138.62 167.19 80
7 05/24/2021 10:36:36 -0.01,-137.14 -0.33,-135.68 166.53 80
8 05/24/2021 23:00:40 0.00,-137.12 -0.78,-140.86 425.00 80
9 05/26/2021 10:24:24 -0.01,-137.10 -0.94,-132.71 499.30 80
10 05/26/2021 22:45:48 0.01,-137.09 -0.16,-137.90 92.41 80
11 05/28/2021 22:36:16 0.01,-137.05 0.46,-134.94 239.49 80
